Location: Écouen
(49.0206°N, 2.3831°E)
Time: 17:33:12
(UTC+00:00)

Daily predictions for brighter satellites

Satellite Brightness Start Highest point End
(mag) Time Altitude Azimuth Time Altitude Azimuth Time Altitude Azimuth
H-2A R/B 2.0 20:10:34 10° NNE 20:14:41 89° WNW 20:18:48 10° SSW
SPOT 5 4.1 20:10:19 10° SE 20:14:54 31° ENE 20:19:22 10° N
Cosmos 1486 Rocket 4.4 20:11:22 10° S 20:16:22 44° ESE 20:21:22 10° NE
Cosmos 2219 3.3 20:12:47 10° NNW 20:18:28 87° WSW 20:24:05 10° SSE
ATLAS 2AS CENTAUR R/B 3.8 20:15:41 10° SSE 20:21:52 27° ESE 20:27:56 10° ENE
Cosmos 1515 4.0 20:18:18 10° SSE 20:21:55 45° E 20:25:32 10° NNE
Cosmos 1328 Rocket 3.5 20:19:33 10° S 20:23:52 89° E 20:28:14 10° N
NOSS 3-4 (A) 3.3 20:20:22 10° SSW 20:25:59 63° SE 20:32:05 10° NE
NOSS 3-4 (C) 3.3 20:20:25 10° SSW 20:26:04 63° SE 20:32:10 10° NE
Terra 3.2 20:22:16 10° ESE 20:26:08 25° ENE 20:30:01 10° N
Cosmos 2082 3.9 20:21:05 10° NNW 20:26:42 62° ENE 20:32:15 10° SE
ARGOS Delta rocket 4.2 20:22:25 10° NNE 20:27:56 75° E 20:33:23 10° S
IRAS Rocket 4.3 20:22:51 10° NNE 20:28:30 72° ESE 20:34:07 10° S
Aureole 1 Rocket 2.6 20:29:22 10° S 20:32:25 39° ESE 20:35:15 10° NE
Cosmos 2263 Rocket 3.0 20:29:33 10° NNW 20:34:50 40° NE 20:40:03 10° ESE
Cosmos 1743 2.6 20:32:25 10° N 20:36:14 75° E 20:40:00 10° SSE
ISS -3.2 20:33:58 10° WNW 20:37:18 59° N 20:40:37 10° E
USA 267 4.3 20:31:33 10° ENE 20:37:42 45° N 20:43:50 10° WNW
Cosmos 1340 2.7 20:34:06 10° S 20:37:45 56° E 20:41:27 10° NNE
EXPRESS MD2 3.9 20:35:43 10° WNW 20:41:54 53° SSW 20:44:49 13° SE
Cosmos 1933 Rocket 3.6 20:39:33 10° N 20:44:03 78° ENE 20:48:30 10° SSE
Cosmos 2034 Rocket 4.3 20:38:52 10° SSE 20:44:55 52° E 20:51:03 10° NNE
Cosmos 1656 4.5 20:39:30 10° SW 20:44:58 56° WNW 20:50:24 10° NNE
Cosmos 1503 Rocket 4.3 20:40:13 10° S 20:45:14 47° ESE 20:50:19 10° NNE
SPOT 1/Viking Rocket 4.0 20:43:49 10° S 20:48:56 60° W 20:54:03 10° NNW
Cosmos 2227 Rocket 3.0 20:43:48 10° NW 20:49:15 48° WSW 20:54:39 10° S
ATLAS 3B R/B 3.8 20:43:03 10° NW 20:49:56 43° NNE 20:57:05 10° ESE
Cosmos 1536 3.2 20:47:23 10° NNW 20:51:23 65° W 20:55:21 10° S
Cosmos 389 Rocket 2.5 20:47:59 10° NNW 20:51:29 77° W 20:54:56 10° S
RESURS DK-1 3.6 20:50:49 13° SSE 20:53:33 23° ESE 20:56:50 10° NE
Cosmos 405 4.5 20:51:15 10° NNW 20:54:20 33° W 20:57:25 10° SSW
ATLAS CENTAUR R/B 4.2 20:51:56 10° NNW 20:55:00 16° NNE 20:58:00 10° NE
ERS-1 Rocket 3.2 20:53:05 13° SSE 20:57:29 58° ENE 21:02:26 10° N
Okean 1 3.7 20:54:11 11° SSE 20:57:51 47° E 21:01:43 10° NNE
Cosmos 2344 3.5 20:50:59 10° SSW 20:58:20 61° ESE 21:05:52 10° NE
Meteor 1-19 Rocket 4.3 20:55:48 10° S 21:01:04 53° E 21:06:19 10° NNE
Cosmos 1980 Rocket 2.3 20:55:46 10° S 21:01:15 56° ESE 21:06:47 10° NE
BREEZE M DEB (TANK) 3.6 20:58:42 10° W 21:02:27 68° SSW 21:15:53 10° ESE
SJ 16-02 1.8 20:59:23 10° S 21:03:29 41° ESE 21:07:36 10° NE
SL-4 R/B 3.0 21:01:42 10° WNW 21:05:54 37° SW 21:08:46 17° SSE
Cosmos 2369 3.7 21:00:27 10° SSW 21:06:02 69° ESE 21:11:42 10° NNE
Resurs 01 Rocket 3.2 21:02:19 10° SSW 21:06:13 31° W 21:10:09 10° NNW
Cosmos 2322 Rocket 3.9 21:07:18 12° ESE 21:09:01 14° E 21:11:42 10° ENE
Cosmos 1844 Rocket 4.4 21:10:31 10° N 21:14:57 23° NE 21:19:19 10° E
Cosmos 44 Rocket 3.7 21:11:02 10° NNW 21:15:41 52° NE 21:19:17 16° ESE
Helios 1A Rocket 3.1 21:15:01 14° S 21:18:22 65° WSW 21:22:21 10° NNW
Cosmos 1975 3.2 21:16:34 10° N 21:20:33 50° ENE 21:22:59 21° SE
Ariane Rocket 4.4 21:16:23 10° SSW 21:20:57 34° W 21:25:34 10° NNW
Cosmos 1697 Rocket 3.3 21:15:28 10° SW 21:21:04 60° WNW 21:26:42 10° NNE
BREEZE-M DEB (TANK) 1.5 21:22:21 10° W 21:24:34 69° SSW 21:27:06 17° ESE
Cosmos 1378 3.4 21:22:33 22° SSE 21:24:37 47° E 21:28:09 10° NNE
Cosmos 2297 Rocket 4.4 21:22:11 10° WNW 21:25:49 18° W 21:29:28 10° SW
Cosmos 1184 Rocket 4.0 21:23:01 10° SW 21:25:51 37° WNW 21:28:43 10° N
Cosmos 2228 Rocket 3.1 21:23:19 14° S 21:27:10 73° E 21:31:44 10° NNE
SL-24 R/B - RUBIN 2 3.9 21:23:20 10° NW 21:27:40 58° NE 21:30:48 19° ESE
Cosmos 2292 Rocket 2.6 21:25:16 10° N 21:28:24 66° ENE 21:29:43 29° SSE
CZ-4B R/B 4.3 21:26:56 10° NNW 21:28:59 16° WNW 21:31:01 10° WSW
ASTRO F (AKARI) 4.2 21:27:27 24° S 21:29:08 75° WSW 21:32:18 10° NNW
Cosmos 2227 4.4 21:23:50 10° NNW 21:29:35 65° ENE 21:33:39 20° SE
NOSS 2-1 (C) 4.4 21:34:20 19° ESE 21:34:20 19° ESE 21:36:05 10° ENE
Cosmos 1869 Rocket 3.8 21:29:12 10° NNW 21:33:40 69° W 21:37:00 18° S
Cosmos 921 Rocket 4.0 21:31:05 10° NNW 21:35:22 43° WSW 21:38:44 15° S
Cosmos 1092 Rocket 4.0 21:35:26 10° N 21:41:39 85° W 21:46:19 18° S
USA 215 4.0 21:37:35 10° ENE 21:43:15 30° SE 21:47:17 17° S
Meteor 1-18 Rocket 4.2 21:38:43 14° S 21:43:40 80° E 21:49:19 10° NNE
SL-16 R/B 2.9 21:43:30 22° SSE 21:46:22 36° ESE 21:51:29 10° NE
ARIANE 5 R/B 2.7 21:45:15 23° S 21:48:03 77° WSW 21:52:36 10° NNW
Cosmos 1634 Rocket 4.0 21:44:50 17° S 21:49:44 76° E 21:55:56 10° NNE
Cosmos 1354 Rocket 4.4 21:45:57 10° SSW 21:51:12 65° WNW 21:56:30 10° NNE
SPOT 5 3.9 21:48:32 14° SSW 21:52:47 45° W 21:57:46 10° NNW
Cosmos 1777 Rocket 4.0 21:48:47 10° SSW 21:53:56 88° ESE 21:59:13 10° NNE
Cosmos 482 Debris 4.4 21:51:07 10° WNW 21:54:12 53° SSW 21:56:05 29° SE
CZ-2C R/B 4.1 21:49:39 10° N 21:54:24 68° WNW 21:58:54 11° SSW
Spot 2 Rocket 4.5 21:50:44 14° SSW 21:54:44 40° W 21:59:30 10° NNW
CZ-4C R/B 4.2 21:53:48 10° NW 21:59:45 34° NNE 22:06:47 10° E
Cosmos 1707 Rocket 3.5 21:58:26 24° S 22:01:07 87° E 22:05:34 10° N
Terra 2.5 22:00:31 19° SSW 22:03:38 47° W 22:08:15 10° NNW
Cosmos 2278 3.8 21:59:55 10° SSW 22:05:34 80° WNW 22:11:18 10° NNE
Cosmos 2026 Rocket 4.3 22:03:29 10° NNW 22:09:33 63° W 22:13:55 20° S
Cosmos 1346 Rocket 2.8 22:08:38 28° SSW 22:10:41 85° WNW 22:14:44 10° N
ATLAS 2AS CENTAUR R/B 3.0 22:04:17 10° SW 22:12:08 88° NW 22:19:41 10° NE
ISS -3.5 22:10:49 10° WNW 22:14:04 49° SSW 22:14:22 47° S
Cosmos 2360 Rocket 3.2 22:12:46 25° SE 22:14:21 29° ESE 22:19:07 10° NE
Meteor 2-15 Rocket 4.4 22:11:04 24° S 22:14:50 75° E 22:20:56 10° NNE
USA 81 4.2 22:11:16 20° SSW 22:14:55 73° W 22:20:13 10° N
Meteor 2-10 4.4 22:11:53 10° N 22:17:07 54° ENE 22:19:35 29° SE
Cosmos 2263 Rocket 3.0 22:13:35 10° NW 22:18:46 40° WSW 22:21:48 22° SSW
Meteor 1-4 Rocket 2.5 22:15:38 10° N 22:19:06 66° ENE 22:19:55 47° SE
USA 267 3.6 22:13:43 10° ESE 22:20:12 65° NNE 22:26:40 10° NW
ERS-2 4.1 22:18:24 10° NE 22:20:37 16° E 22:20:37 16° E
SAR-Lupe-4 3.9 22:19:20 10° N 22:22:54 62° WNW 22:24:36 28° SW
Cosmos 1441 Rocket 3.1 22:22:39 44° SSE 22:23:41 70° E 22:27:23 10° NNE
Cosmos 1733 Rocket 3.6 22:26:00 10° NNW 22:30:19 51° W 22:32:21 28° SSW
RESURS DK-1 3.5 22:27:23 10° SW 22:31:19 42° NW 22:35:16 10° NNE
Cosmos 1538 Rocket 4.4 22:27:16 10° NNW 22:32:23 52° WSW 22:34:46 29° SSW
ATLAS CENTAUR R/B 2.8 22:30:23 10° NNW 22:35:03 41° NE 22:38:21 17° ESE
Cosmos 1066 Rocket 4.2 22:32:08 29° S 22:35:12 78° E 22:40:54 10° NNE
Cosmos 1726 2.7 22:32:21 10° N 22:35:54 44° ENE 22:36:41 38° ESE
Cosmos 2242 Rocket 4.4 22:37:36 32° SE 22:38:49 38° E 22:43:02 10° NNE
Cosmos 1908 Rocket 3.5 22:35:40 10° N 22:40:01 76° ENE 22:41:24 42° SSE
ATLAS 3B R/B 3.0 22:33:51 10° NW 22:41:09 68° SW 22:45:21 29° SSE
ALOS 2 3.3 22:40:21 30° ESE 22:42:00 45° ENE 22:46:12 10° N
SJ 16-02 3.4 22:38:34 10° WSW 22:42:12 25° NW 22:45:51 10° N
NOSS 2-1 (E) 2.7 22:42:30 52° SW 22:43:11 86° NNW 22:46:28 10° NE
Cosmos 1862 Rocket 4.1 22:41:16 26° SW 22:43:37 56° WNW 22:48:03 10° N
Iridium 2 4.4 22:40:04 10° NNW 22:43:41 46° W 22:44:51 33° SW
Cosmos 2266 Rocket 4.0 22:38:32 10° N 22:44:51 80° E 22:47:56 32° SSE
Cosmos 1980 Rocket 4.0 22:40:35 10° WSW 22:45:34 31° NW 22:50:36 10° NNE
NOSS 3-1 (C) 4.4 22:40:48 10° NW 22:47:52 61° NE 22:55:50 12° ESE
Cosmos 923 Rocket 4.0 22:45:27 10° NNW 22:50:48 80° WSW 22:53:00 37° SSE
Cosmos 2333 Rocket 3.1 22:50:06 28° SE 22:51:29 32° ESE 22:56:26 10° NE
Cosmos 2322 Rocket 2.1 22:49:04 28° SSW 22:52:08 81° ESE 22:57:47 10° NNE
Cosmos 1805 3.7 22:48:32 10° NNW 22:52:20 53° W 22:53:20 40° SW
BREEZE-M DEB (TANK) 2.5 22:51:40 10° W 23:00:30 - ESE 22:53:18 48° W
Cosmos 2279 Rocket 4.4 22:50:48 20° SSW 22:55:04 58° WNW 23:01:14 10° N
Cosmos 44 Rocket 4.5 22:53:00 10° WNW 22:56:55 26° WSW 22:57:58 24° SW
Cosmos 1844 Rocket 2.6 22:53:54 10° NNW 22:59:32 82° WSW 23:01:53 36° SSE
Cosmos 1937 Rocket 3.8 22:59:10 37° SSE 23:00:45 50° ESE 23:05:52 10° NNE
Cosmos 1356 4.0 23:03:40 40° WSW 23:04:18 46° WNW 23:07:30 10° N
Cosmos 1766 3.2 23:00:38 10° NNW 23:04:33 75° W 23:05:21 53° SSW
Gblst 52 Del rocket 4.4 23:01:22 15° SW 23:06:32 55° SSE 23:12:07 10° ENE
Cosmos 2112 Rocket 4.0 23:06:06 10° NNW 23:11:28 82° WSW 23:13:28 40° SSE
Cosmos 1818 3.5 23:07:08 10° NW 23:12:38 89° SW 23:15:02 35° SE
Cosmos 1680 Rocket 3.6 23:07:53 10° NNW 23:13:11 69° WSW 23:15:04 40° S
Cosmos 1844 3.7 23:10:58 10° NNW 23:16:47 73° WSW 23:19:08 37° S
Cosmos 2219 Rocket 2.8 23:17:40 33° SE 23:19:08 39° ESE 23:24:18 10° NE
NOSS 2-1 (D) 4.4 23:17:43 16° W 23:19:52 34° NW 23:22:58 10° NNE
Cosmos 990 Rocket 4.4 23:18:03 24° SW 23:21:08 60° WNW 23:26:21 10° NNE
USA 215 3.2 23:20:13 10° ENE 23:26:49 86° SSE 23:33:24 10° SW
Cosmos 1898 Rocket 3.6 23:25:28 32° SW 23:28:02 76° WNW 23:33:23 10° NNE
Cosmos 1707 3.1 23:29:22 45° ESE 23:29:48 48° E 23:33:34 10° NNE
SL-16 R/B 3.2 23:25:18 12° SW 23:30:22 44° NW 23:35:49 10° NNE
Cosmos 858 Rocket 4.4 23:28:58 40° S 23:30:55 80° ESE 23:36:14 10° NNE
Okean 1-7 3.7 23:30:15 32° SW 23:31:50 47° WNW 23:36:05 10° N
Cosmos 1238 Rocket 3.9 23:31:04 10° NNE 23:33:31 23° ENE 23:33:40 23° E
Iridium 4 Rocket 4.2 23:34:24 10° NNW 23:38:34 38° W 23:40:16 28° SW
Nadezhda 2 Rocket 4.4 23:33:51 10° N 23:40:04 79° E 23:42:51 35° SSE
Cosmos 1470 2.6 23:36:57 10° NNW 23:40:50 73° W 23:41:21 61° SSW
Cosmos 1553 Rocket 4.4 23:38:26 31° SSE 23:41:03 51° E 23:47:01 10° NNE
COSMOS 2428 3.2 23:42:41 34° SSE 23:44:24 44° ESE 23:49:46 10° NE
Cosmos 2221 Rocket 4.2 23:45:00 37° SE 23:46:02 45° E 23:50:15 10° NNE
Cosmos 2237 Rocket 3.9 23:44:21 16° ESE 23:46:05 18° E 23:49:49 10° ENE
ADEOS Rocket 2.8 23:45:12 38° S 23:47:27 74° WSW 23:53:27 10° NNW
KORONAS-FOTON 4.2 23:47:32 44° ESE 23:47:56 46° E 23:51:36 10° NNE
Okean 3 4.4 23:47:44 30° WSW 23:49:07 40° WNW 23:53:09 10° N
CZ-4C R/B 3.0 23:42:10 10° NW 23:49:16 82° NE 23:56:33 15° SE
Meteor 1-21 4.3 23:49:35 37° S 23:51:55 72° E 23:57:44 10° NNE
SL-08 ROCKET BODY 4.3 23:46:51 10° NNW 23:52:46 76° W 23:55:09 37° S
Cosmos 1437 Rocket 4.1 23:49:47 10° N 23:53:08 29° ENE 23:54:22 24° ESE
ERS-2 2.8 23:50:48 10° N 23:54:16 44° WNW 23:55:01 38° WSW
Cosmos 1953 3.7 23:51:48 10° N 23:55:25 30° ENE 23:56:54 23° ESE
